Flag for Switzerland Weather past 2 weeks in Altstätten, St. Gallen, Switzerland

Now
52 °F

Clear.


Feels Like: 51 °F
Forecast: 40 / 69 °F
Wind: 3 mph from Southwest

Location: Saint Gallen-Altenrhein


UV Index: 3 (Moderate)

Visibility: N/A


Pressure: 30.07 "Hg

Humidity: 82%

Dew point: 46 °F

Location of AltstättenLocation

Historic Weather in Altstätten

°F

Altstätten temperature yesterday

Maximum temperature yesterday: 68 °F (at 3:20 PM)
Minimum temperature yesterday: 41 °F (at 3:20 AM)
Average temperature yesterday: 55 °F

Past Weeks' High & Low Weather Summary

 TemperatureHumidityPressure
High68 °F (Apr 23, 3:20 PM)100% (Apr 11, 4:50 AM)30.33 "Hg (Apr 11, 4:50 AM)
Low30 °F (Apr 17, 6:20 AM)27% (Apr 17, 4:50 PM)29.62 "Hg (Apr 21, 2:50 AM)
Average49 °F69%30.02 "Hg
* Reported Apr 8 11:20 PM — Apr 23 11:20 PM, Altstätten, Weather by CustomWeather, © 2014

Note: Actual official high and low records may vary slightly from our data, if they occured in-between our weather recording intervals... More about our weather records

Advertising

Historic Weather Conditions — Data for Previous 24 hours

 ConditionsComfort  
Time TempWeatherWind HumidityBarometerVisibility
11:20 PM
Apr 23
55 °FClear.3 mph67%30.04 "HgN/A
10:50 PM52 °FClear.2 mph77%30.04 "Hg10 mi
10:20 PM54 °FClear.2 mph72%30.04 "Hg10 mi
9:50 PM55 °FClear.3 mph72%30.04 "Hg10 mi
9:20 PM61 °FRefreshingly cool.5 mph55%30.04 "HgN/A
8:50 PM63 °FPassing clouds.6 mph52%30.01 "HgN/A
8:20 PM64 °FSunny.8 mph49%30.01 "Hg10 mi
7:50 PM64 °FPassing clouds.6 mph52%30.01 "HgN/A
7:20 PM66 °FPassing clouds.2 mph49%30.01 "HgN/A
6:50 PM66 °FPassing clouds.3 mph49%30.01 "HgN/A
6:20 PM66 °FPassing clouds.6 mph52%30.01 "HgN/A
5:50 PM68 °FPassing clouds.8 mph49%30.01 "HgN/A
5:20 PM68 °FPassing clouds.6 mph49%30.01 "HgN/A
4:50 PM68 °FPassing clouds.7 mph49%30.01 "HgN/A
4:20 PM68 °FPassing clouds.7 mph46%30.01 "HgN/A
3:50 PM66 °FPassing clouds.6 mph52%30.04 "HgN/A
3:20 PM68 °FMild.3 mph49%30.04 "HgN/A
2:50 PM66 °FPassing clouds.5 mph49%30.04 "HgN/A
2:20 PM64 °FSunny.6 mph56%30.04 "Hg10 mi
1:50 PM64 °FPassing clouds.7 mph60%30.07 "HgN/A
1:20 PM61 °FSunny.7 mph63%30.07 "Hg10 mi
12:50 PM59 °FSunny.6 mph68%30.09 "Hg10 mi
12:20 PM59 °FPassing clouds.5 mph68%30.09 "HgN/A
11:50 AM57 °FPassing clouds.5 mph63%30.09 "HgN/A
11:20 AM57 °FPassing clouds.3 mph67%30.09 "HgN/A
10:50 AM55 °FSunny.3 mph67%30.12 "Hg10 mi
10:20 AM54 °FSunny.3 mph77%30.12 "Hg10 mi
9:50 AM54 °FSunny.2 mph77%30.09 "Hg10 mi
9:20 AM52 °FSunny.3 mph77%30.09 "Hg10 mi
8:50 AM52 °FPassing clouds.5 mph82%30.09 "HgN/A
8:20 AM52 °FPassing clouds.3 mph82%30.09 "HgN/A
7:50 AM48 °FSunny.1 mph94%30.09 "Hg10 mi
7:20 AM43 °FSunny.1 mph93%30.09 "Hg10 mi
6:50 AM43 °FClear.1 mph93%30.07 "Hg10 mi
6:20 AM41 °FClear.1 mph100%30.07 "Hg10 mi
5:50 AM41 °FClear.1 mph100%30.07 "Hg10 mi
5:20 AM41 °FClear.2 mph100%30.07 "Hg10 mi
4:50 AM41 °FClear.1 mph93%30.07 "Hg10 mi
4:20 AM43 °FClear.2 mph93%30.07 "Hg10 mi
3:50 AM41 °FClear.1 mph100%30.07 "Hg10 mi
3:20 AM41 °FClear.5 mph100%30.04 "Hg10 mi
2:50 AM43 °FClear.2 mph93%30.04 "Hg10 mi
2:20 AM45 °FClear.2 mph93%30.04 "Hg10 mi
1:50 AM45 °FClear.1 mph93%30.04 "Hg10 mi
1:20 AM45 °FClear.1 mph93%30.04 "Hg10 mi
12:50 AM45 °FClear.1 mph93%30.01 "Hg10 mi
12:20 AM46 °FClear.2 mph87%30.01 "Hg10 mi
Weather by CustomWeather, © 2014

See weather overview